�������l�o���
Date,Time,MP-1(��Sv/h),MP-2(��Sv/h),MP-3(��Sv/h),MP-4(��Sv/h),MP-5(��Sv/h),MP-6(��Sv/h),MP-7(��Sv/h),����,����(m/s),���J
2014/11/04,00:00,0.618,0.427,0.653,0.590,0.589,0.272,0.237,���k��,3.1,��
2014/11/04,00:10,0.616,0.427,0.651,0.590,0.589,0.273,0.239,�k��,3.2,��
2014/11/04,00:20,0.616,0.428,0.652,0.590,0.590,0.272,0.238,���k��,2.9,��
2014/11/04,00:30,0.616,0.427,0.651,0.589,0.590,0.272,0.238,���쐼,2.4,��
2014/11/04,00:40,0.617,0.428,0.652,0.590,0.590,0.271,0.238,���쐼,0.6,��
2014/11/04,00:50,0.618,0.426,0.651,0.589,0.589,0.271,0.238,�쓌,1.4,��
2014/11/04,01:00,0.617,0.427,0.653,0.591,0.590,0.272,0.239,��,2.8,��
2014/11/04,01:10,0.616,0.426,0.651,0.591,0.588,0.272,0.237,��쐼,2.6,��
2014/11/04,01:20,0.617,0.428,0.652,0.590,0.587,0.272,0.239,��쐼,2.2,��
2014/11/04,01:30,0.617,0.428,0.650,0.591,0.589,0.273,0.237,��쐼,2.5,��
2014/11/04,01:40,0.616,0.426,0.651,0.591,0.590,0.272,0.238,��,2.0,��
2014/11/04,01:50,0.617,0.426,0.652,0.590,0.590,0.272,0.239,��쓌,2.4,��
2014/11/04,02:00,0.617,0.428,0.652,0.590,0.588,0.272,0.236,��,3.3,��
2014/11/04,02:10,0.617,0.426,0.652,0.591,0.590,0.273,0.237,��쐼,4.2,��
2014/11/04,02:20,0.615,0.426,0.654,0.591,0.589,0.273,0.238,��쐼,3.3,��
2014/11/04,02:30,0.617,0.426,0.651,0.591,0.588,0.271,0.239,��쓌,2.8,��
2014/11/04,02:40,0.617,0.427,0.652,0.589,0.591,0.273,0.239,��쐼,3.9,��
2014/11/04,02:50,0.618,0.426,0.652,0.592,0.590,0.271,0.239,��,2.7,��
2014/11/04,03:00,0.616,0.426,0.652,0.591,0.589,0.272,0.239,��쐼,3.5,��
2014/11/04,03:10,0.618,0.427,0.651,0.590,0.588,0.272,0.239,��쐼,0.8,��
2014/11/04,03:20,0.617,0.427,0.652,0.592,0.589,0.272,0.237,-,CALM,��
2014/11/04,03:30,0.616,0.427,0.651,0.592,0.588,0.273,0.238,��쐼,2.1,��
2014/11/04,03:40,0.616,0.426,0.653,0.590,0.589,0.272,0.238,��,1.5,��
2014/11/04,03:50,0.615,0.427,0.652,0.590,0.590,0.271,0.240,-,CALM,��
2014/11/04,04:00,0.617,0.426,0.653,0.592,0.589,0.272,0.237,�k�k��,0.9,��
2014/11/04,04:10,0.617,0.427,0.653,0.590,0.588,0.272,0.238,�k�k��,3.9,��
2014/11/04,04:20,0.616,0.427,0.653,0.590,0.589,0.271,0.238,�k,4.9,��
2014/11/04,04:30,0.617,0.426,0.652,0.591,0.591,0.272,0.239,�k,4.0,��
2014/11/04,04:40,0.617,0.428,0.654,0.591,0.588,0.271,0.238,�k,2.6,��
2014/11/04,04:50,0.619,0.426,0.653,0.591,0.590,0.272,0.238,�k,2.6,��
2014/11/04,05:00,0.617,0.427,0.652,0.591,0.589,0.274,0.238,�k,3.9,��
2014/11/04,05:10,0.617,0.426,0.652,0.591,0.588,0.272,0.238,�k�k��,2.3,��
2014/11/04,05:20,0.617,0.427,0.653,0.590,0.589,0.270,0.239,�k,1.8,��
2014/11/04,05:30,0.616,0.426,0.652,0.590,0.590,0.271,0.237,�k,1.1,��
2014/11/04,05:40,0.618,0.425,0.652,0.591,0.589,0.271,0.238,�k�k��,1.6,��
2014/11/04,05:50,0.618,0.426,0.653,0.590,0.588,0.271,0.238,�k,2.1,��
2014/11/04,06:00,0.616,0.427,0.652,0.591,0.589,0.271,0.237,�k�k��,1.6,��
2014/11/04,06:10,0.617,0.425,0.652,0.591,0.588,0.273,0.238,�k,4.1,��
2014/11/04,06:20,0.619,0.426,0.653,0.590,0.590,0.272,0.238,�k��,3.5,��
2014/11/04,06:30,0.620,0.427,0.651,0.590,0.589,0.273,0.238,�k��,3.4,��
2014/11/04,06:40,0.616,0.428,0.652,0.591,0.589,0.271,0.238,�k�k��,4.7,��
2014/11/04,06:50,0.617,0.427,0.654,0.591,0.589,0.271,0.238,�k�k��,3.8,��
2014/11/04,07:00,0.618,0.427,0.654,0.591,0.590,0.272,0.238,���k��,1.6,��
2014/11/04,07:10,0.620,0.427,0.654,0.590,0.590,0.271,0.238,���쐼,0.8,��
2014/11/04,07:20,0.617,0.426,0.653,0.590,0.589,0.273,0.237,-,CALM,��
2014/11/04,07:30,0.617,0.426,0.651,0.591,0.588,0.271,0.236,�k��,0.8,��
2014/11/04,07:40,0.617,0.428,0.655,0.591,0.588,0.272,0.239,-,CALM,��
2014/11/04,07:50,0.618,0.428,0.653,0.593,0.591,0.273,0.236,��쐼,0.8,��
2014/11/04,08:00,0.618,0.426,0.652,0.590,0.590,0.272,0.238,-,CALM,��
2014/11/04,08:10,0.617,0.427,0.651,0.590,0.590,0.272,0.235,��쐼,1.1,��
2014/11/04,08:20,0.617,0.427,0.653,0.592,0.590,0.272,0.238,��,1.2,��
2014/11/04,08:30,0.618,0.426,0.654,0.591,0.590,0.272,0.236,��,1.4,��
2014/11/04,08:40,0.618,0.427,0.653,0.592,0.589,0.272,0.238,-,CALM,��
2014/11/04,08:50,0.619,0.428,0.654,0.591,0.590,0.271,0.238,�k,1.3,��
2014/11/04,09:00,0.619,0.428,0.653,0.591,0.590,0.271,0.238,�k�k��,1.2,��
2014/11/04,09:10,0.619,0.426,0.654,0.592,0.590,0.272,0.239,�k,0.8,��
2014/11/04,09:20,0.618,0.427,0.654,0.593,0.589,0.272,0.237,-,CALM,��
2014/11/04,09:30,0.618,0.428,0.654,0.593,0.589,0.272,0.239,��,1.8,��
2014/11/04,09:40,0.618,0.427,0.653,0.593,0.591,0.272,0.238,��,3.6,��
2014/11/04,09:50,0.618,0.427,0.654,0.596,0.592,0.272,0.239,���k��,2.8,��
2014/11/04,10:00,0.617,0.427,0.655,0.594,0.592,0.271,0.237,���k��,2.6,��
2014/11/04,10:10,0.617,0.426,0.654,0.594,0.591,0.272,0.235,�k�k��,3.3,��
2014/11/04,10:20,0.619,0.429,0.655,0.595,0.593,0.271,0.239,���k��,3.7,��
2014/11/04,10:30,0.617,0.430,0.655,0.598,0.592,0.272,0.238,��,7.7,��
2014/11/04,10:40,0.618,0.428,0.654,0.596,0.594,0.271,0.236,��,8.0,��
2014/11/04,10:50,0.619,0.428,0.655,0.598,0.593,0.273,0.239,��,8.9,��
2014/11/04,11:00,0.622,0.429,0.653,0.599,0.595,0.271,0.238,���k��,8.3,��
2014/11/04,11:10,0.622,0.430,0.654,0.598,0.592,0.271,0.237,���k��,6.4,��
2014/11/04,11:20,0.620,0.430,0.656,0.601,0.595,0.274,0.239,���k��,6.4,��
2014/11/04,11:30,0.622,0.430,0.655,0.602,0.591,0.272,0.237,���k��,8.1,��
2014/11/04,11:40,0.620,0.431,0.656,0.603,0.594,0.273,0.237,��,6.8,��
2014/11/04,11:50,0.622,0.432,0.655,0.604,0.594,0.272,0.239,��,7.1,��
2014/11/04,12:00,0.623,0.429,0.655,0.604,0.593,0.271,0.238,��,5.7,��
2014/11/04,12:10,0.624,0.430,0.656,0.605,0.594,0.273,0.237,���k��,5.2,��
2014/11/04,12:20,0.626,0.429,0.657,0.609,0.594,0.272,0.238,�k��,6.4,��
2014/11/04,12:30,0.624,0.431,0.659,0.607,0.594,0.272,0.238,�k��,7.7,��
2014/11/04,12:40,0.624,0.430,0.657,0.606,0.595,0.272,0.236,�k��,6.6,��
2014/11/04,12:50,0.625,0.430,0.658,0.607,0.595,0.273,0.238,�k��,5.9,��
2014/11/04,13:00,0.623,0.429,0.659,0.608,0.596,0.272,0.239,�k��,6.0,��
2014/11/04,13:10,0.621,0.430,0.660,0.609,0.597,0.272,0.236,���k��,6.3,��
2014/11/04,13:20,0.622,0.432,0.662,0.606,0.595,0.273,0.238,���k��,4.8,��
2014/11/04,13:30,0.622,0.430,0.661,0.607,0.597,0.271,0.241,�k��,5.8,��
2014/11/04,13:40,0.625,0.429,0.660,0.611,0.594,0.271,0.238,�k��,4.7,��
2014/11/04,13:50,0.624,0.432,0.659,0.609,0.596,0.270,0.240,��,6.5,��
2014/11/04,14:00,0.622,0.431,0.661,0.610,0.595,0.270,0.238,���k��,6.0,��
2014/11/04,14:10,0.620,0.433,0.659,0.610,0.594,0.269,0.240,���k��,4.3,��
2014/11/04,14:20,0.620,0.435,0.660,0.608,0.593,0.268,0.238,���k��,4.3,��
2014/11/04,14:30,0.618,0.434,0.658,0.606,0.592,0.273,0.239,��,3.9,��
2014/11/04,14:40,0.619,0.431,0.657,0.604,0.592,0.272,0.237,���k��,5.6,��
2014/11/04,14:50,0.620,0.428,0.657,0.604,0.592,0.270,0.240,���k��,5.0,��
2014/11/04,15:00,0.619,0.425,0.656,0.603,0.589,0.272,0.238,���k��,3.6,��
2014/11/04,15:10,0.618,0.426,0.655,0.602,0.592,0.272,0.240,���k��,2.6,��
2014/11/04,15:20,0.618,0.424,0.655,0.601,0.590,0.272,0.240,�k��,1.6,��
2014/11/04,15:30,0.618,0.424,0.654,0.601,0.591,0.271,0.240,�k�k��,1.5,��
2014/11/04,15:40,0.619,0.423,0.653,0.596,0.589,0.271,0.239,�k,1.4,��
2014/11/04,15:50,0.617,0.421,0.654,0.597,0.589,0.272,0.239,�k�k��,0.5,��
2014/11/04,16:00,0.617,0.422,0.654,0.595,0.588,0.270,0.238,�k��,0.5,��
2014/11/04,16:10,0.620,0.419,0.653,0.594,0.590,0.272,0.240,���k��,0.9,��
2014/11/04,16:20,0.621,0.417,0.653,0.592,0.588,0.273,0.239,���k��,2.9,��
2014/11/04,16:30,0.618,0.418,0.653,0.591,0.586,0.273,0.239,���k��,3.5,��
2014/11/04,16:40,0.620,0.416,0.651,0.591,0.589,0.272,0.240,���k��,2.8,��
2014/11/04,16:50,0.618,0.416,0.654,0.588,0.587,0.272,0.240,�k��,2.5,��
2014/11/04,17:00,0.619,0.417,0.655,0.588,0.587,0.273,0.240,�k��,2.1,��
2014/11/04,17:10,0.619,0.416,0.652,0.590,0.587,0.272,0.239,�k��,2.8,��
2014/11/04,17:20,0.617,0.417,0.653,0.592,0.587,0.273,0.239,�k��,1.6,��
2014/11/04,17:30,0.618,0.416,0.654,0.591,0.587,0.272,0.239,���k��,1.6,��
2014/11/04,17:40,0.619,0.416,0.653,0.590,0.589,0.273,0.240,��,3.3,��
2014/11/04,17:50,0.620,0.415,0.654,0.590,0.589,0.272,0.239,��,2.7,��
2014/11/04,18:00,0.618,0.416,0.654,0.592,0.588,0.273,0.241,��,3.6,��
2014/11/04,18:10,0.620,0.416,0.654,0.591,0.589,0.273,0.241,��,2.8,��
2014/11/04,18:20,0.618,0.417,0.654,0.590,0.589,0.272,0.240,���k��,1.7,��
2014/11/04,18:30,0.618,0.417,0.653,0.592,0.588,0.272,0.240,���k��,2.4,��
2014/11/04,18:40,0.619,0.416,0.652,0.593,0.588,0.273,0.242,��,2.8,��
2014/11/04,18:50,0.618,0.416,0.652,0.591,0.590,0.272,0.240,���k��,3.9,��
2014/11/04,19:00,0.619,0.417,0.654,0.592,0.588,0.273,0.241,�k��,2.5,��
2014/11/04,19:10,0.619,0.416,0.655,0.590,0.590,0.272,0.241,�k,1.8,��
2014/11/04,19:20,0.619,0.416,0.653,0.592,0.588,0.272,0.241,�k��,3.1,��
2014/11/04,19:30,0.617,0.416,0.654,0.591,0.589,0.273,0.240,���k��,5.6,��
2014/11/04,19:40,0.619,0.417,0.654,0.592,0.588,0.274,0.239,���k��,5.9,��
2014/11/04,19:50,0.619,0.416,0.654,0.591,0.590,0.273,0.241,�k��,3.9,��
2014/11/04,20:00,0.619,0.416,0.653,0.592,0.589,0.274,0.240,���k��,5.7,��
2014/11/04,20:10,0.621,0.416,0.653,0.592,0.589,0.272,0.240,���k��,3.3,��
2014/11/04,20:20,0.619,0.415,0.653,0.593,0.589,0.272,0.239,���k��,5.0,��
2014/11/04,20:30,0.618,0.416,0.653,0.591,0.589,0.273,0.240,�k��,4.6,��
2014/11/04,20:40,0.619,0.415,0.652,0.591,0.588,0.273,0.240,���k��,5.3,��
2014/11/04,20:50,0.617,0.415,0.655,0.592,0.589,0.274,0.239,�k��,4.6,��
2014/11/04,21:00,0.618,0.416,0.654,0.591,0.588,0.273,0.239,���k��,4.2,��
2014/11/04,21:10,0.619,0.416,0.653,0.592,0.588,0.272,0.241,�k��,3.1,��
2014/11/04,21:20,0.619,0.416,0.654,0.590,0.589,0.273,0.240,���k��,2.2,��
2014/11/04,21:30,0.619,0.416,0.652,0.591,0.590,0.272,0.238,���k��,1.4,��
2014/11/04,21:40,0.619,0.416,0.655,0.591,0.589,0.273,0.240,���k��,1.7,��
2014/11/04,21:50,0.617,0.418,0.654,0.591,0.590,0.272,0.240,�k��,2.1,��
2014/11/04,22:00,0.618,0.416,0.653,0.591,0.590,0.272,0.240,�k,1.9,��
2014/11/04,22:10,0.618,0.417,0.654,0.591,0.588,0.273,0.239,�k,3.1,��
2014/11/04,22:20,0.620,0.417,0.654,0.592,0.589,0.272,0.241,�k�k��,5.2,��
2014/11/04,22:30,0.620,0.416,0.655,0.593,0.589,0.273,0.240,�k�k��,3.5,��
2014/11/04,22:40,0.620,0.416,0.653,0.591,0.592,0.273,0.241,�k�k��,4.1,��
2014/11/04,22:50,0.619,0.416,0.655,0.593,0.589,0.272,0.239,�k�k��,3.9,��
2014/11/04,23:00,0.619,0.416,0.654,0.592,0.590,0.273,0.240,�k,4.3,��
2014/11/04,23:10,0.618,0.416,0.653,0.592,0.589,0.273,0.240,�k,2.3,��
2014/11/04,23:20,0.618,0.416,0.652,0.591,0.589,0.273,0.241,�k��,1.4,��
2014/11/04,23:30,0.620,0.417,0.654,0.591,0.591,0.272,0.239,���쐼,0.5,��
2014/11/04,23:40,0.620,0.416,0.655,0.592,0.590,0.273,0.241,-,CALM,��
2014/11/04,23:50,0.618,0.417,0.654,0.593,0.589,0.272,0.239,�쐼,0.7,��
